Time,TemperatureF,DewpointF,PressureIn,WindDirection,WindDirectionDegrees,WindSpeedMPH,WindSpeedGustMPH,Humidity,HourlyPrecipIn,Conditions,Clouds,dailyrainin,SoftwareType,DateUTC
2013-02-06 00:01:00,11.0,7.0,30.11,NNW,331,0.0,0.0,82,0.00,,,0.01,,2013-02-06 06:01:00,
2013-02-06 00:11:00,11.0,7.0,30.11,NNW,331,0.0,0.0,82,0.00,,,0.01,,2013-02-06 06:11:00,
2013-02-06 00:21:00,11.0,7.0,30.12,NNW,331,0.0,0.0,83,0.00,,,0.01,,2013-02-06 06:21:00,
2013-02-06 00:32:00,11.0,7.0,30.12,NNW,331,0.0,0.0,83,0.00,,,0.01,,2013-02-06 06:32:00,
2013-02-06 00:42:00,11.0,7.0,30.12,NNW,331,0.0,0.0,83,0.00,,,0.01,,2013-02-06 06:42:00,
2013-02-06 00:51:00,12.0,8.0,30.13,NNW,331,0.0,0.0,83,0.00,,,0.01,,2013-02-06 06:51:00,
2013-02-06 01:01:00,12.0,8.0,30.14,NNW,331,0.0,0.0,83,0.00,,,0.01,,2013-02-06 07:01:00,
2013-02-06 01:11:00,12.0,8.0,30.14,NNW,331,0.0,0.0,83,0.00,,,0.01,,2013-02-06 07:11:00,
2013-02-06 01:21:00,12.0,8.0,30.14,NNW,331,0.0,0.0,82,0.00,,,0.01,,2013-02-06 07:21:00,
2013-02-06 01:32:00,12.0,8.0,30.14,NNW,331,0.0,0.0,83,0.00,,,0.01,,2013-02-06 07:32:00,
2013-02-06 01:42:00,12.0,8.0,30.14,NNW,331,0.0,0.0,83,0.00,,,0.01,,2013-02-06 07:42:00,
2013-02-06 01:51:00,12.0,8.0,30.14,NNW,331,0.0,0.0,82,0.00,,,0.01,,2013-02-06 07:51:00,
2013-02-06 02:01:00,12.0,7.0,30.14,NNW,331,0.0,0.0,80,0.00,,,0.01,,2013-02-06 08:01:00,
2013-02-06 02:11:00,12.0,7.0,30.14,NNW,331,0.0,0.0,80,0.00,,,0.01,,2013-02-06 08:11:00,
2013-02-06 02:21:00,12.0,7.0,30.14,NNW,331,0.0,0.0,81,0.00,,,0.01,,2013-02-06 08:21:00,
2013-02-06 02:31:00,10.0,6.0,30.14,NNW,331,0.0,1.0,83,0.00,,,0.01,,2013-02-06 08:31:00,
2013-02-06 02:42:00,10.0,6.0,30.14,NNW,331,0.0,1.0,83,0.00,,,0.01,,2013-02-06 08:42:00,
2013-02-06 02:53:00,9.0,5.0,30.15,NNW,331,0.0,0.0,84,0.00,,,0.01,,2013-02-06 08:53:00,
2013-02-06 03:01:00,8.0,4.0,30.15,NNW,331,0.0,0.0,85,0.00,,,0.01,,2013-02-06 09:01:00,
2013-02-06 03:11:00,8.0,4.0,30.15,NNW,331,0.0,0.0,85,0.00,,,0.01,,2013-02-06 09:11:00,
2013-02-06 03:21:00,7.0,4.0,30.15,NNW,331,0.0,0.0,86,0.00,,,0.01,,2013-02-06 09:21:00,
2013-02-06 03:31:00,6.0,3.0,30.14,NNW,331,0.0,0.0,86,0.00,,,0.01,,2013-02-06 09:31:00,
2013-02-06 03:41:00,6.0,3.0,30.14,NNW,331,0.0,0.0,86,0.00,,,0.01,,2013-02-06 09:41:00,
2013-02-06 03:51:00,5.0,2.0,30.14,NNW,331,0.0,0.0,86,0.00,,,0.01,,2013-02-06 09:51:00,
2013-02-06 04:01:00,4.0,1.0,30.15,NNW,331,0.0,0.0,87,0.00,,,0.01,,2013-02-06 10:01:00,
2013-02-06 04:11:00,4.0,1.0,30.15,NNW,331,0.0,0.0,87,0.00,,,0.01,,2013-02-06 10:11:00,
2013-02-06 04:21:00,5.0,2.0,30.16,NNW,331,0.0,2.0,87,0.00,,,0.01,,2013-02-06 10:21:00,
2013-02-06 04:31:00,6.0,3.0,30.16,NNW,331,0.0,0.0,87,0.00,,,0.01,,2013-02-06 10:31:00,
2013-02-06 04:42:00,6.0,3.0,30.16,NNW,331,0.0,0.0,87,0.00,,,0.01,,2013-02-06 10:42:00,
2013-02-06 04:51:00,7.0,4.0,30.16,NNW,331,0.0,0.0,86,0.00,,,0.01,,2013-02-06 10:51:00,
2013-02-06 05:01:00,7.0,4.0,30.15,NNW,331,0.0,0.0,86,0.00,,,0.01,,2013-02-06 11:01:00,
2013-02-06 05:11:00,7.0,4.0,30.15,NNW,331,0.0,0.0,86,0.00,,,0.01,,2013-02-06 11:11:00,
2013-02-06 05:22:00,8.0,4.0,30.15,NNW,331,0.0,0.0,85,0.00,,,0.01,,2013-02-06 11:22:00,
2013-02-06 05:32:00,8.0,4.0,30.15,NNW,331,0.0,0.0,85,0.00,,,0.01,,2013-02-06 11:32:00,
2013-02-06 05:42:00,8.0,4.0,30.15,NNW,331,0.0,0.0,85,0.00,,,0.01,,2013-02-06 11:42:00,
2013-02-06 05:52:00,9.0,5.0,30.16,NNW,331,0.0,1.0,85,0.00,,,0.01,,2013-02-06 11:52:00,
2013-02-06 06:02:00,8.0,4.0,30.15,NNW,331,0.0,0.0,84,0.00,,,0.01,,2013-02-06 12:02:00,
2013-02-06 06:12:00,8.0,4.0,30.15,NNW,331,0.0,0.0,84,0.00,,,0.01,,2013-02-06 12:12:00,
2013-02-06 06:22:00,8.0,4.0,30.15,NNW,331,0.0,0.0,85,0.00,,,0.01,,2013-02-06 12:22:00,
2013-02-06 06:32:00,8.0,4.0,30.16,NNW,331,0.0,1.0,85,0.00,,,0.01,,2013-02-06 12:32:00,
2013-02-06 06:42:00,8.0,4.0,30.16,NNW,331,0.0,1.0,85,0.00,,,0.01,,2013-02-06 12:42:00,
2013-02-06 06:52:00,8.0,4.0,30.16,NNW,331,0.0,0.0,85,0.00,,,0.01,,2013-02-06 12:52:00,
2013-02-06 07:01:00,8.0,4.0,30.16,NNW,331,0.0,0.0,84,0.00,,,0.01,,2013-02-06 13:01:00,
2013-02-06 07:12:00,8.0,4.0,30.16,NNW,331,0.0,0.0,84,0.00,,,0.01,,2013-02-06 13:12:00,
2013-02-06 07:22:00,8.0,4.0,30.16,NNW,331,0.0,1.0,84,0.00,,,0.01,,2013-02-06 13:22:00,
2013-02-06 07:32:00,8.0,4.0,30.17,NNW,331,0.0,0.0,84,0.00,,,0.01,,2013-02-06 13:32:00,
2013-02-06 07:42:00,8.0,4.0,30.17,NNW,331,0.0,0.0,84,0.00,,,0.01,,2013-02-06 13:42:00,
2013-02-06 07:52:00,9.0,5.0,30.16,NNW,331,0.0,0.0,84,0.00,,,0.01,,2013-02-06 13:52:00,
2013-02-06 08:02:00,9.0,5.0,30.17,NNW,331,0.0,1.0,82,0.00,,,0.01,,2013-02-06 14:02:00,
2013-02-06 08:11:00,9.0,5.0,30.17,NNW,331,0.0,1.0,82,0.00,,,0.01,,2013-02-06 14:11:00,
2013-02-06 08:22:00,9.0,5.0,30.18,NNW,331,0.0,1.0,82,0.00,,,0.01,,2013-02-06 14:22:00,
2013-02-06 08:32:00,9.0,5.0,30.18,NNW,331,0.0,2.0,82,0.00,,,0.01,,2013-02-06 14:32:00,
2013-02-06 08:42:00,9.0,5.0,30.18,NNW,331,0.0,2.0,82,0.00,,,0.01,,2013-02-06 14:42:00,
2013-02-06 08:52:00,10.0,5.0,30.19,NNW,331,0.0,1.0,81,0.00,,,0.01,,2013-02-06 14:52:00,
2013-02-06 09:01:00,10.0,5.0,30.19,NNW,334,0.0,2.0,80,0.00,,,0.01,,2013-02-06 15:01:00,
2013-02-06 09:11:00,10.0,5.0,30.19,NNW,334,0.0,2.0,80,0.00,,,0.01,,2013-02-06 15:11:00,
2013-02-06 09:21:00,11.0,6.0,30.19,SSW,202,0.0,2.0,79,0.00,,,0.01,,2013-02-06 15:21:00,
2013-02-06 09:31:00,11.0,6.0,30.19,SSW,202,0.0,2.0,79,0.00,,,0.01,,2013-02-06 15:31:00,
2013-02-06 09:41:00,11.0,6.0,30.19,SSW,202,0.0,2.0,79,0.00,,,0.01,,2013-02-06 15:41:00,
2013-02-06 09:52:00,12.0,6.0,30.19,South,175,2.0,4.0,76,0.00,,,0.01,,2013-02-06 15:52:00,
2013-02-06 10:01:00,13.0,7.0,30.19,South,176,1.0,3.0,76,0.00,,,0.01,,2013-02-06 16:01:00,
2013-02-06 10:11:00,13.0,7.0,30.19,South,176,1.0,3.0,76,0.00,,,0.01,,2013-02-06 16:11:00,
2013-02-06 10:21:00,14.0,8.0,30.19,South,176,1.0,3.0,75,0.00,,,0.01,,2013-02-06 16:21:00,
2013-02-06 10:32:00,15.0,8.0,30.18,South,176,0.0,2.0,73,0.00,,,0.01,,2013-02-06 16:32:00,
2013-02-06 10:42:00,15.0,8.0,30.18,South,176,0.0,2.0,73,0.00,,,0.01,,2013-02-06 16:42:00,
2013-02-06 10:51:00,16.0,9.0,30.18,South,176,0.0,3.0,72,0.00,,,0.01,,2013-02-06 16:51:00,
2013-02-06 11:02:00,17.0,9.0,30.19,South,176,1.0,3.0,70,0.00,,,0.01,,2013-02-06 17:02:00,
2013-02-06 11:11:00,17.0,9.0,30.19,South,176,1.0,3.0,70,0.00,,,0.01,,2013-02-06 17:11:00,
2013-02-06 11:21:00,18.0,10.0,30.19,South,182,1.0,5.0,70,0.00,,,0.01,,2013-02-06 17:21:00,
2013-02-06 11:32:00,18.0,10.0,30.19,South,182,0.0,4.0,69,0.00,,,0.01,,2013-02-06 17:32:00,
2013-02-06 11:42:00,18.0,10.0,30.19,South,182,0.0,4.0,69,0.00,,,0.01,,2013-02-06 17:42:00,
2013-02-06 11:52:00,18.0,10.0,30.19,South,180,1.0,3.0,71,0.00,,,0.01,,2013-02-06 17:52:00,
2013-02-06 12:01:00,18.0,11.0,30.19,NE,52,1.0,3.0,72,0.00,,,0.01,,2013-02-06 18:01:00,
2013-02-06 12:11:00,18.0,11.0,30.19,NE,52,1.0,3.0,72,0.00,,,0.01,,2013-02-06 18:11:00,
2013-02-06 12:23:00,17.0,10.0,30.18,North,11,1.0,3.0,73,0.00,,,0.01,,2013-02-06 18:23:00,
2013-02-06 12:32:00,17.0,10.0,30.19,North,11,0.0,2.0,75,0.00,,,0.01,,2013-02-06 18:32:00,
2013-02-06 12:42:00,17.0,10.0,30.19,North,11,0.0,2.0,75,0.00,,,0.01,,2013-02-06 18:42:00,
2013-02-06 12:52:00,18.0,12.0,30.19,North,11,0.0,2.0,78,0.00,,,0.01,,2013-02-06 18:52:00,
2013-02-06 13:01:00,18.0,13.0,30.19,NE,38,0.0,2.0,80,0.00,,,0.01,,2013-02-06 19:01:00,
2013-02-06 13:11:00,18.0,13.0,30.19,NE,38,0.0,2.0,80,0.00,,,0.01,,2013-02-06 19:11:00,
2013-02-06 13:21:00,18.0,13.0,30.19,NNW,341,0.0,2.0,82,0.00,,,0.01,,2013-02-06 19:21:00,
2013-02-06 13:32:00,18.0,14.0,30.18,NNE,17,0.0,2.0,83,0.00,,,0.01,,2013-02-06 19:32:00,
2013-02-06 13:42:00,18.0,14.0,30.18,NNE,17,0.0,2.0,83,0.00,,,0.01,,2013-02-06 19:42:00,
2013-02-06 13:52:00,18.0,14.0,30.18,NNE,17,0.0,2.0,84,0.00,,,0.01,,2013-02-06 19:52:00,
2013-02-06 14:01:00,18.0,14.0,30.18,NNE,17,0.0,3.0,85,0.00,,,0.01,,2013-02-06 20:01:00,
2013-02-06 14:11:00,18.0,14.0,30.18,NNE,17,0.0,3.0,85,0.00,,,0.01,,2013-02-06 20:11:00,
2013-02-06 14:21:00,19.0,16.0,30.17,NNE,17,0.0,2.0,86,0.00,,,0.01,,2013-02-06 20:21:00,
2013-02-06 14:32:00,18.0,15.0,30.16,ENE,62,0.0,3.0,87,0.00,,,0.00,,2013-02-06 20:32:00,
2013-02-06 14:42:00,18.0,15.0,30.16,ENE,62,0.0,3.0,87,0.00,,,0.00,,2013-02-06 20:42:00,
2013-02-06 14:52:00,18.0,15.0,30.16,ENE,62,0.0,2.0,87,0.00,,,0.00,,2013-02-06 20:52:00,
2013-02-06 15:02:00,19.0,16.0,30.16,ENE,62,0.0,2.0,88,0.00,,,0.00,,2013-02-06 21:02:00,
2013-02-06 15:11:00,19.0,16.0,30.16,ENE,62,0.0,2.0,88,0.00,,,0.00,,2013-02-06 21:11:00,
2013-02-06 15:21:00,19.0,16.0,30.15,North,9,0.0,2.0,88,0.00,,,0.00,,2013-02-06 21:21:00,
2013-02-06 15:32:00,19.0,16.0,30.15,North,355,0.0,3.0,88,0.00,,,0.00,,2013-02-06 21:32:00,
2013-02-06 15:42:00,19.0,16.0,30.15,North,355,0.0,3.0,88,0.00,,,0.00,,2013-02-06 21:42:00,
2013-02-06 15:51:00,19.0,16.0,30.14,ENE,69,0.0,2.0,89,0.00,,,0.00,,2013-02-06 21:51:00,
2013-02-06 16:01:00,20.0,18.0,30.13,NE,52,0.0,3.0,90,0.00,,,0.00,,2013-02-06 22:01:00,
2013-02-06 16:11:00,20.0,18.0,30.13,NE,52,0.0,3.0,90,0.00,,,0.00,,2013-02-06 22:11:00,
2013-02-06 16:21:00,21.0,19.0,30.12,ENE,63,0.0,3.0,90,0.00,,,0.00,,2013-02-06 22:21:00,
2013-02-06 16:31:00,21.0,19.0,30.12,ENE,66,0.0,3.0,90,0.00,,,0.00,,2013-02-06 22:31:00,
2013-02-06 16:42:00,21.0,19.0,30.12,ENE,66,0.0,3.0,90,0.00,,,0.00,,2013-02-06 22:42:00,
2013-02-06 16:51:00,21.0,19.0,30.12,NNE,30,0.0,3.0,90,0.00,,,0.00,,2013-02-06 22:51:00,
2013-02-06 17:01:00,21.0,19.0,30.12,NNE,24,0.0,2.0,91,0.00,,,0.00,,2013-02-06 23:01:00,
2013-02-06 17:11:00,21.0,19.0,30.12,NNE,24,0.0,2.0,91,0.00,,,0.00,,2013-02-06 23:11:00,
2013-02-06 17:21:00,21.0,19.0,30.12,NE,40,0.0,3.0,91,0.00,,,0.00,,2013-02-06 23:21:00,
2013-02-06 17:32:00,21.0,19.0,30.11,NE,49,0.0,1.0,91,0.00,,,0.00,,2013-02-06 23:32:00,
2013-02-06 17:42:00,21.0,19.0,30.11,NE,49,0.0,1.0,91,0.00,,,0.00,,2013-02-06 23:42:00,
2013-02-06 17:52:00,21.0,19.0,30.12,NNE,30,0.0,2.0,92,0.00,,,0.00,,2013-02-06 23:52:00,
2013-02-06 18:01:00,21.0,19.0,30.12,NE,49,0.0,2.0,92,0.00,,,0.00,,2013-02-07 00:01:00,
2013-02-06 18:11:00,21.0,19.0,30.12,NE,49,0.0,2.0,92,0.00,,,0.00,,2013-02-07 00:11:00,
2013-02-06 18:21:00,22.0,20.0,30.12,NNE,32,0.0,2.0,92,0.00,,,0.00,,2013-02-07 00:21:00,
2013-02-06 18:31:00,22.0,20.0,30.13,NE,43,1.0,3.0,92,0.00,,,0.00,,2013-02-07 00:31:00,
2013-02-06 18:42:00,22.0,20.0,30.13,NE,43,1.0,3.0,92,0.00,,,0.00,,2013-02-07 00:42:00,
2013-02-06 18:51:00,22.0,20.0,30.11,SSE,150,0.0,3.0,92,0.00,,,0.00,,2013-02-07 00:51:00,
2013-02-06 19:01:00,22.0,20.0,30.12,SE,125,1.0,5.0,92,0.00,,,0.00,,2013-02-07 01:01:00,
2013-02-06 19:11:00,22.0,20.0,30.12,SE,125,1.0,5.0,92,0.00,,,0.00,,2013-02-07 01:11:00,
2013-02-06 19:21:00,22.0,20.0,30.13,NE,40,0.0,3.0,92,0.00,,,0.00,,2013-02-07 01:21:00,
2013-02-06 19:31:00,22.0,20.0,30.13,SE,133,1.0,5.0,92,0.00,,,0.00,,2013-02-07 01:31:00,
2013-02-06 19:42:00,22.0,20.0,30.13,SE,133,1.0,5.0,92,0.00,,,0.00,,2013-02-07 01:42:00,
2013-02-06 19:52:00,23.0,21.0,30.13,NE,43,0.0,3.0,92,0.00,,,0.00,,2013-02-07 01:52:00,
2013-02-06 20:01:00,23.0,21.0,30.14,East,86,0.0,4.0,92,0.00,,,0.00,,2013-02-07 02:01:00,
2013-02-06 20:11:00,23.0,21.0,30.14,East,86,0.0,4.0,92,0.00,,,0.00,,2013-02-07 02:11:00,
2013-02-06 20:21:00,23.0,21.0,30.14,NE,47,0.0,5.0,92,0.00,,,0.00,,2013-02-07 02:21:00,
2013-02-06 20:32:00,23.0,21.0,30.14,NNE,30,1.0,4.0,92,0.00,,,0.00,,2013-02-07 02:32:00,
2013-02-06 20:41:00,23.0,21.0,30.14,NNE,30,1.0,4.0,92,0.00,,,0.00,,2013-02-07 02:41:00,
2013-02-06 20:51:00,23.0,21.0,30.14,NNE,30,1.0,4.0,92,0.00,,,0.00,,2013-02-07 02:51:00,
2013-02-06 21:02:00,23.0,21.0,30.15,NE,34,0.0,3.0,93,0.00,,,0.00,,2013-02-07 03:02:00,
2013-02-06 21:11:00,23.0,21.0,30.15,NE,34,0.0,3.0,93,0.00,,,0.00,,2013-02-07 03:11:00,
2013-02-06 21:21:00,23.0,21.0,30.14,ENE,73,0.0,3.0,93,0.00,,,0.00,,2013-02-07 03:21:00,
2013-02-06 21:31:00,23.0,21.0,30.15,North,9,1.0,6.0,93,0.00,,,0.00,,2013-02-07 03:31:00,
2013-02-06 21:42:00,23.0,21.0,30.15,North,9,1.0,6.0,93,0.00,,,0.00,,2013-02-07 03:42:00,
2013-02-06 21:51:00,23.0,21.0,30.15,North,5,0.0,3.0,93,0.00,,,0.00,,2013-02-07 03:51:00,
2013-02-06 22:01:00,23.0,22.0,30.16,NNE,26,0.0,2.0,94,0.00,,,0.00,,2013-02-07 04:01:00,
2013-02-06 22:11:00,23.0,22.0,30.16,NNE,26,0.0,2.0,94,0.00,,,0.00,,2013-02-07 04:11:00,
2013-02-06 22:22:00,23.0,22.0,30.16,ENE,59,0.0,3.0,94,0.00,,,0.00,,2013-02-07 04:22:00,
2013-02-06 22:32:00,23.0,22.0,30.16,NNE,30,0.0,2.0,94,0.00,,,0.00,,2013-02-07 04:32:00,
2013-02-06 22:41:00,23.0,22.0,30.16,NNE,30,0.0,2.0,94,0.00,,,0.00,,2013-02-07 04:41:00,
2013-02-06 22:52:00,23.0,22.0,30.15,SSE,152,0.0,2.0,94,0.00,,,0.00,,2013-02-07 04:52:00,
2013-02-06 23:02:00,23.0,22.0,30.15,SE,126,0.0,2.0,94,0.00,,,0.00,,2013-02-07 05:02:00,
2013-02-06 23:12:00,23.0,22.0,30.15,SE,126,0.0,2.0,94,0.00,,,0.00,,2013-02-07 05:12:00,
2013-02-06 23:21:00,23.0,22.0,30.15,ENE,61,0.0,2.0,94,0.00,,,0.00,,2013-02-07 05:21:00,
2013-02-06 23:32:00,23.0,22.0,30.16,ENE,67,0.0,2.0,94,0.00,,,0.00,,2013-02-07 05:32:00,
2013-02-06 23:42:00,23.0,22.0,30.16,ENE,67,0.0,2.0,94,0.00,,,0.00,,2013-02-07 05:42:00,
2013-02-06 23:52:00,23.0,22.0,30.16,ENE,67,0.0,1.0,94,0.00,,,0.00,,2013-02-07 05:52:00,